Home   Weather   Miskolc   Past weeks

Flag for Hungary Past Weather in Miskolc, Hungary — Yesterday and Last 2 Weeks

Now
53 °F

Sunny.


Feels Like: 53 °F
Forecast: 50 / 77 °F
Wind: No wind

Location: Miskolc

Current Time: May 28, 2017 at 7:05:50 am

Latest Report: May 28, 2017 at 6:00 am


Visibility: 19 mi

Pressure: 30.27 "Hg

Humidity: 76%

Dew Point: 46 °F

Location of MiskolcLocation

Past Weather in Miskolc — Graph

°F

Miskolc Temperature Yesterday

Maximum temperature yesterday: 72 °F (at 3:00 pm)
Minimum temperature yesterday: 52 °F (at 5:00 am)
Average temperature yesterday: 63 °F

High & Low Weather Summary for the Past Weeks

 TemperatureHumidityPressure
High82 °F (May 20, 3:00 pm)93% (May 14, 3:00 am)30.33 "Hg (May 14, 3:00 am)
Low50 °F (May 26, 5:00 am)29% (May 15, 6:00 pm)29.75 "Hg (May 13, 5:00 am)
Average64 °F64%30.05 "Hg
* Reported May 13 5:00 am — May 28 5:00 am, Miskolc. Weather by CustomWeather, © 2017

Note: Actual official high and low records may vary slightly from our data, if they occured in-between our weather recording intervals... More about our weather records

Advertising

Miskolc Weather History for the Previous 24 Hours

Scroll right to see more
 ConditionsComfort  
Time TempWeatherWind HumidityBarometerVisibility
5:00 am
Sun, May 28
51 °FSunny.1 mph78%30.26 "Hg19 mi
4:00 am52 °FClear.1 mph77%30.25 "Hg19 mi
3:00 am52 °FClear.1 mph75%30.25 "Hg19 mi
2:00 am53 °FClear.1 mph74%30.25 "Hg19 mi
1:00 am53 °FClear.No wind75%30.24 "Hg19 mi
12:00 am54 °FClear.No wind72%30.24 "Hg19 mi
11:00 pm
Sat, May 27
56 °FClear.No wind66%30.22 "Hg22 mi
10:00 pm59 °FClear.2 mph58%30.21 "Hg22 mi
9:00 pm64 °FPassing clouds.2 mph44%30.18 "Hg25 mi
8:00 pm67 °FPassing clouds.3 mph39%30.15 "Hg25 mi
7:00 pm69 °FPassing clouds.5 mph36%30.14 "Hg25 mi
6:00 pm71 °FPassing clouds.5 mph35%30.13 "Hg25 mi
5:00 pm72 °FPassing clouds.6 mph34%30.12 "Hg25 mi
4:00 pm72 °FScattered clouds.6 mph33%30.12 "Hg25 mi
3:00 pm72 °FScattered clouds.5 mph34%30.13 "Hg25 mi
2:00 pm71 °FScattered clouds.6 mph36%30.13 "Hg25 mi
1:00 pm70 °FScattered clouds.6 mph41%30.14 "Hg25 mi
12:00 pm68 °FScattered clouds.5 mph45%30.13 "Hg25 mi
11:00 am69 °FScattered clouds.6 mph45%30.12 "Hg25 mi
10:00 am67 °FOvercast.6 mph47%30.11 "Hg25 mi
9:00 am66 °FPartly sunny.5 mph53%30.11 "Hg22 mi
8:00 am64 °FPassing clouds.2 mph62%30.09 "Hg22 mi
7:00 am60 °FPassing clouds.No wind68%30.09 "Hg19 mi
Weather by CustomWeather, © 2017

See weather overviewHow to use our weather pages